ATLAS 5 CENTAUR DEB, 46656

Orbit data source: Space-Track

ATLAS 5 CENTAUR DEB, 46656 is space debris in HEO originally from a launch on Wed, 17 Oct 2018 UTC launched from the Air Force Eastern Test Range (AFETR). Debris objects in space refer to the collection of defunct objects orbiting the Earth. Examples of debris include non-operational satellites, rocket bodies, and fragments generated from explosions, collisions, or faulty payload assembly.

Loading next visibility...
Identifier
46656, 2018-079CJ
Orbit
HEO
Country
Flag of USUS
Related business
Flag of USUnited Launch Alliance/Lockheed Martin (US)
Manufacturer
ULA Decatur
Mission
Spacecraft
Bus & Motor
Unknown
Mass
Unknown
Launch date (UTC)
2018-10-17 (8 years ago)
Launch vehicle
Unknown
Launch site
Air Force Eastern Test Range (AFETR)
Object type
Payload
Rocket body
Debris
Shape & HBR
Unknown shape, 1.1 m
Radar Cross Section
RCS unknown

Expand to show TLE details & history
Last TLE update: 2 days ago

TLE from 2 days ago
0 ATLAS 5 CENTAUR DEB
1 46656U 18079CJ  26171.23686330 -.00000142  00000-0  00000+0 0  9997
2 46656  13.5344 359.4990 4547338  29.1437 350.0804  1.96967539 41019
Epoch: 2026-06-20T05:41Z
TLE epoch observation values (Epoch: 2026-06-20T05:41:04.989Z)
Latitude
0.00005°
Longitude
5.78342°
Altitude
8,899.815 km
Speed
6.112 km/s
True Right ascension
23h 58m 02s
True Declination
0° 00' 00"
Sunlit
Object was in daylight at epoch
Visualization orbit readout
Latitude
Unknown
Longitude
Unknown
Altitude
Unknown
Speed
Unknown
Apparent Right ascension
Unknown
Apparent Declination
Unknown
Sunlit
N/A
Visualization observer readout
Local Sidereal Time
21:41:43
Azimuth
Unknown
Elevation
Unknown
Doppler factor
Unknown
Orbital elements
Apogee altitude
32,732.082 km
Perigee altitude
8,281.233 km
Semi-major axis
26,884.795 km
Eccentricity
0.45473
Inclination
13.5344°
RAAN
359.499°
Arg. of periapsis
29.1437°
True anomaly
331.0716°
Mean anomaly
350.0804°
Eccentric anomaly
342.0514°
Mean motion
0.49236 °/min
Orbital period
731.17 mins
BSTAR
0
Loading maneuver chart data...
Computing Atmospheric mass density...

Documentation

Showing up to 5 results
|